• In Russia
  • List of Countries
  • For 7 days
  • Water Temperature
  • Satellite Maps
  • Weather Map
  • Weather Widgets
  • user-avatar
    Login

    Hourly Weather Newcastle

    Today, 22 February, Thursday

    Time Temperature Precipitation Wind Pressure Humidity
    00:00 +3°C° 0 mm 1 mps 756 mmHg 91%
    01:00 +3°C° 0 mm 1 mps 755 mmHg 92%
    02:00 +1°C° 0 mm 2 mps 755 mmHg 93%
    03:00 +1°C° 0 mm 2 mps 755 mmHg 94%
    04:00 +1°C° 0 mm 2 mps 754 mmHg 94%
    05:00 +1°C° 0 mm 2 mps 754 mmHg 94%
    06:00 +1°C° 0 mm 2 mps 755 mmHg 94%
    07:00 +1°C° 0 mm 2 mps 755 mmHg 90%
    08:00 +1°C° 0 mm 3 mps 755 mmHg 86%
    09:00 +1°C° 0 mm 3 mps 755 mmHg 83%
    10:00 0°C° 0 mm 4 mps 755 mmHg 78%
    11:00 +1°C° 0 mm 4 mps 755 mmHg 74%
    12:00 +1°C° 0 mm 4 mps 754 mmHg 69%
    13:00 +1°C° 0 mm 4 mps 754 mmHg 68%
    14:00 +1°C° 0 mm 4 mps 754 mmHg 66%
    15:00 +3°C° 0 mm 3 mps 754 mmHg 65%
    16:00 +2°C° 0 mm 3 mps 754 mmHg 69%
    17:00 +1°C° 0 mm 3 mps 753 mmHg 73%
    18:00 +1°C° 0 mm 2 mps 753 mmHg 77%
    19:00 +1°C° 0 mm 2 mps 754 mmHg 78%
    20:00 -1°C° 0 mm 2 mps 754 mmHg 80%
    21:00 -1°C° 0 mm 2 mps 754 mmHg 82%
    22:00 -1°C° 0 mm 2 mps 754 mmHg 82%
    23:00 -2°C° 0 mm 2 mps 754 mmHg 82%

    Tomorrow, 23 February, Friday

    Time Temperature Precipitation Wind Pressure Humidity
    00:00 -2°C° 0 mm 3 mps 754 mmHg 82%
    01:00 -2°C° 0 mm 2 mps 754 mmHg 82%
    02:00 -2°C° 0 mm 2 mps 753 mmHg 83%
    03:00 -2°C° 0 mm 2 mps 753 mmHg 83%
    04:00 -2°C° 0 mm 2 mps 753 mmHg 84%
    05:00 -2°C° 0 mm 2 mps 753 mmHg 86%
    06:00 -2°C° 0 mm 2 mps 753 mmHg 87%
    07:00 -1°C° 0 mm 3 mps 753 mmHg 84%
    08:00 -2°C° 0 mm 4 mps 753 mmHg 80%
    09:00 -1°C° 0 mm 4 mps 753 mmHg 76%
    10:00 0°C° 0 mm 5 mps 753 mmHg 71%
    11:00 +1°C° 0 mm 5 mps 753 mmHg 67%
    12:00 +2°C° 0 mm 6 mps 753 mmHg 62%
    13:00 +2°C° 0 mm 6 mps 752 mmHg 61%
    14:00 +3°C° 0 mm 5 mps 752 mmHg 60%
    15:00 +3°C° 0 mm 5 mps 751 mmHg 59%
    16:00 +2°C° 0 mm 5 mps 751 mmHg 65%
    17:00 +1°C° 0 mm 4 mps 751 mmHg 70%
    18:00 -1°C° 0 mm 4 mps 751 mmHg 75%
    19:00 -1°C° 0 mm 4 mps 751 mmHg 77%
    20:00 -2°C° 0 mm 4 mps 751 mmHg 79%
    21:00 -2°C° 0 mm 5 mps 751 mmHg 81%
    22:00 -3°C° 0 mm 4 mps 751 mmHg 81%
    23:00 -3°C° 0 mm 4 mps 751 mmHg 80%

    Day after tomorrow, 24 February, Saturday

    Time Temperature Precipitation Wind Pressure Humidity
    00:00 -3°C° 0 mm 4 mps 752 mmHg 80%
    01:00 -3°C° 0 mm 4 mps 751 mmHg 79%
    02:00 -3°C° 0 mm 4 mps 751 mmHg 77%
    03:00 -3°C° 0 mm 4 mps 751 mmHg 76%
    04:00 -3°C° 0 mm 4 mps 751 mmHg 73%
    05:00 -3°C° 0 mm 4 mps 751 mmHg 70%
    06:00 -4°C° 0 mm 4 mps 751 mmHg 68%
    07:00 -4°C° 0 mm 5 mps 752 mmHg 63%
    08:00 -2°C° 0 mm 5 mps 752 mmHg 58%
    09:00 -3°C° 0 mm 6 mps 753 mmHg 53%
    10:00 -2°C° 0 mm 6 mps 753 mmHg 50%
    11:00 +1°C° 0 mm 6 mps 753 mmHg 47%
    12:00 +2°C° 0 mm 6 mps 753 mmHg 44%
    13:00 +2°C° 0 mm 6 mps 753 mmHg 45%
    14:00 +2°C° 0 mm 6 mps 753 mmHg 46%
    15:00 +3°C° 0 mm 6 mps 752 mmHg 47%
    16:00 +1°C° 0 mm 6 mps 753 mmHg 51%
    17:00 0°C° 0 mm 5 mps 753 mmHg 55%
    18:00 -1°C° 0 mm 5 mps 753 mmHg 59%
    19:00 -1°C° 0 mm 5 mps 754 mmHg 61%
    20:00 -2°C° 0 mm 5 mps 754 mmHg 64%
    21:00 -2°C° 0 mm 5 mps 754 mmHg 67%
    22:00 -2°C° 0 mm 5 mps 755 mmHg 70%
    23:00 -2°C° 0 mm 5 mps 755 mmHg 73%

    25 February, Sunday

    Time Temperature Precipitation Wind Pressure Humidity
    00:00 -2°C° 0 mm 5 mps 755 mmHg 76%
    01:00 -2°C° 0 mm 5 mps 755 mmHg 75%
    02:00 -4°C° 0 mm 5 mps 755 mmHg 74%
    03:00 -4°C° 0 mm 5 mps 755 mmHg 73%
    04:00 -4°C° 0 mm 5 mps 756 mmHg 72%
    05:00 -4°C° 0 mm 5 mps 756 mmHg 71%
    06:00 -4°C° 0 mm 5 mps 756 mmHg 70%
    07:00 -4°C° 0 mm 5 mps 756 mmHg 67%
    08:00 -3°C° 0 mm 6 mps 756 mmHg 65%
    09:00 -3°C° 0 mm 6 mps 757 mmHg 62%
    10:00 -2°C° 0 mm 6 mps 757 mmHg 57%
    11:00 -1°C° 0 mm 6 mps 757 mmHg 53%
    12:00 +1°C° 0 mm 6 mps 757 mmHg 49%
    13:00 +1°C° 0 mm 6 mps 757 mmHg 48%
    14:00 +1°C° 0 mm 6 mps 757 mmHg 47%
    15:00 +2°C° 0 mm 6 mps 757 mmHg 46%
    16:00 0°C° 0 mm 5 mps 757 mmHg 50%
    17:00 -1°C° 0 mm 5 mps 757 mmHg 54%
    18:00 -2°C° 0 mm 4 mps 757 mmHg 58%
    19:00 -3°C° 0 mm 4 mps 758 mmHg 59%
    20:00 -3°C° 0 mm 4 mps 758 mmHg 61%
    21:00 -4°C° 0 mm 4 mps 758 mmHg 63%
    22:00 -4°C° 0 mm 4 mps 758 mmHg 64%
    23:00 -4°C° 0 mm 4 mps 759 mmHg 64%

    26 February, Monday

    Time Temperature Precipitation Wind Pressure Humidity
    00:00 -4°C° 0 mm 4 mps 759 mmHg 65%
    01:00 -4°C° 0 mm 4 mps 759 mmHg 66%
    02:00 -4°C° 0 mm 3 mps 758 mmHg 68%
    03:00 -4°C° 0 mm 3 mps 758 mmHg 69%
    04:00 -4°C° 0 mm 3 mps 758 mmHg 70%
    05:00 -5°C° 0 mm 3 mps 758 mmHg 72%
    06:00 -5°C° 0 mm 3 mps 758 mmHg 73%
    07:00 -4°C° 0 mm 3 mps 758 mmHg 70%
    08:00 -2°C° 0 mm 3 mps 758 mmHg 68%
    09:00 -2°C° 0 mm 4 mps 758 mmHg 65%
    10:00 -2°C° 0 mm 4 mps 758 mmHg 63%
    11:00 -1°C° 0 mm 4 mps 758 mmHg 61%
    12:00 0°C° 0 mm 4 mps 758 mmHg 59%
    13:00 0°C° 0 mm 5 mps 758 mmHg 58%
    14:00 0°C° 0 mm 5 mps 757 mmHg 57%
    15:00 0°C° 0 mm 5 mps 757 mmHg 56%
    16:00 -1°C° 0 mm 4 mps 757 mmHg 60%
    17:00 -2°C° 0 mm 4 mps 757 mmHg 64%
    18:00 -3°C° 0 mm 4 mps 757 mmHg 67%
    19:00 -4°C° 0 mm 4 mps 757 mmHg 69%
    20:00 -4°C° 0 mm 4 mps 757 mmHg 70%
    21:00 -5°C° 0 mm 3 mps 757 mmHg 71%
    22:00 -5°C° 0 mm 3 mps 757 mmHg 72%
    23:00 -5°C° 0 mm 3 mps 757 mmHg 73%

    27 February, Tuesday

    Time Temperature Precipitation Wind Pressure Humidity
    00:00 -5°C° 0 mm 3 mps 756 mmHg 74%
    01:00 -5°C° 0 mm 3 mps 756 mmHg 74%
    02:00 -5°C° 0 mm 3 mps 756 mmHg 74%
    03:00 -5°C° 0 mm 3 mps 756 mmHg 74%
    04:00 -5°C° 0 mm 3 mps 756 mmHg 74%
    05:00 -4°C° 0 mm 2 mps 755 mmHg 74%
    06:00 -5°C° 0 mm 2 mps 755 mmHg 74%
    07:00 -5°C° 0 mm 3 mps 755 mmHg 69%
    08:00 -4°C° 0 mm 3 mps 755 mmHg 64%
    09:00 -2°C° 0 mm 3 mps 755 mmHg 60%
    10:00 -1°C° 0 mm 3 mps 755 mmHg 56%
    11:00 -1°C° 0 mm 3 mps 754 mmHg 52%
    12:00 0°C° 0 mm 3 mps 754 mmHg 48%
    13:00 0°C° 0 mm 3 mps 754 mmHg 49%
    14:00 +1°C° 0 mm 2 mps 753 mmHg 50%
    15:00 +1°C° 0 mm 2 mps 753 mmHg 52%
    16:00 -1°C° 0.1 mm 2 mps 753 mmHg 59%
    17:00 0°C° 0.1 mm 1 mps 753 mmHg 65%
    18:00 0°C° 0.1 mm 1 mps 752 mmHg 72%
    19:00 -1°C° 0.2 mm 1 mps 752 mmHg 76%
    20:00 -1°C° 0.2 mm 1 mps 752 mmHg 80%
    21:00 -1°C° 0.2 mm 1 mps 752 mmHg 83%
    22:00 -1°C° 0.2 mm 1 mps 752 mmHg 84%
    23:00 -1°C° 0.2 mm 1 mps 752 mmHg 84%
    Show more